Regional Weather Roundup
Issued by NWS

Home | Current Version | Previous Version | Text Only | Print | Product List | Glossary Off
Versions: 1 2 3 4 5 6 7 8 9 10 11 12 13 14 15 16 17 18 19 20 21 22 23 24 25 26 27 28 29 30 31 32 33 34 35 36 37 38 39 40 41 42 43 44 45 46 47 48 49 50

145
ASUS43 KLSX 020710
RWRMO

WEATHER SUMMARY FOR MISSOURI
NATIONAL WEATHER SERVICE SPRINGFIELD MO
200 AM CDT MON MAY 02 2016

NOTE: "FAIR" INDICATES FEW OR NO CLOUDS BELOW 12,000 FEET WITH NO
       SIGNIFICANT WEATHER AND/OR OBSTRUCTIONS TO VISIBILITY.
       CURRENT SKY AND/OR WEATHER CONDITIONS ARE NOT AVAILABLE FOR
       CHILLICOTHE AND FARMINGTON.

MOZ001>031-035>038-043-044-053-054-020800-
...NORTHERN AND WESTERN MISSOURI...

CITY           SKY/WX    TMP DP  RH WIND       PRES   REMARKS
KANSAS CTY INT CLOUDY    48  44  86 NW5       30.13F
KANSAS C DTWN  CLOUDY    51  44  77 NW6       30.13F
LEE`S SUMMIT   CLOUDY    50  44  80 NW3       30.14S
ST JOSEPH      CLOUDY    49  44  83 NW7       30.14F
CHILLICOTHE      N/A     50  46  86 NW3       30.13F
KIRKSVILLE     CLOUDY    48  46  93 NW6       30.10S

$$
MOZ066>068-077>081-088>096-101>105-020800-
...SOUTHWEST MISSOURI...

CITY           SKY/WX    TMP DP  RH WIND       PRES   REMARKS
SPRINGFIELD    LGT RAIN  52  47  83 N10       30.07F
JOPLIN         CLOUDY    51  47  86 N8        30.11F

$$
MOZ032>034-039>042-045>050-055>058-069>072-020800-
...CENTRAL MISSOURI...

CITY           SKY/WX    TMP DP  RH WIND       PRES   REMARKS
COLUMBIA       CLOUDY    51  43  74 NW10      30.10F
JEFFERSON CITY CLOUDY    53  44  71 NW7       30.11R
ROLLA          CLOUDY    49  45  86 NW10      30.07S
SEDALIA        PTCLDY    51  45  79 N8        30.13S
WHITEMAN AFB   CLOUDY    50  48  93 N6        30.11S
WARRENSBURG    CLOUDY    50  45  81 NW5       30.13S
OSAGE BEACH    CLOUDY    50  37  62 NW5       30.10F

$$
MOZ051-052-059>065-020800-
...EAST CENTRAL MISSOURI...

CITY           SKY/WX    TMP DP  RH WIND       PRES   REMARKS
ST LOUIS INTL  MOCLDY    55  48  77 NW10G21   30.04S
SPIRIT OF STL  MOCLDY    53  49  86 NW10G17   30.04S
ST CHARLES     MOCLDY    53  48  83 NW12      30.03S

$$
MOZ072>076-082>087-097>100-106>115-020800-
...SOUTH CENTRAL AND SOUTHEAST MISSOURI...

CITY           SKY/WX    TMP DP  RH WIND       PRES   REMARKS
CAPE GIRARDEAU CLEAR     58  47  66 N8        30.01S
FARMINGTON     PTCLDY    53  47  79 VRB7      30.05R
POPLAR BLUFF   CLEAR     57  50  77 NW5       30.01S
WEST PLAINS    PTCLDY    54  45  71 N9        30.06R

$$




USA.gov is the U.S. government's official web portal to all federal, state and local government web resources and services.